Weather in Kuz'michi

Russia / Volgograd Oblast     48°53′55″N   44°21′25″E
temp.,
°C
wind,
m/s
gust,
m/s
humid.,
%
clouds,
%
prec.,
mm/h
press.,
hPa
HPBL,
m
5 august, thu
thu500:00+22nne49586 0.0 1015205
03:00+21nne3661100 0.0 1016146
06:00+21ne36595 0.0 1017191
09:00+27ne4437100 0.0 10161314
12:00+29nne2327100 0.0 10162369
15:00+32n43210 0.0 10152916
18:00+30ene3322100 0.0 10142356
21:00+24e343092 0.0 101555
6 august, fri
fri600:00+22e463646 0.0 101592
03:00+21e45395 0.0 101574
06:00+22e47413 0.0 1015178
09:00+29e56261 0.0 10151033
12:00+32e55195 0.0 10141994
15:00+34e54160 0.0 10122427
18:00+32e661849 0.0 10121681
21:00+26e5102618 0.0 1012148
7 august, sat
sat700:00+24e512305 0.0 1012227
03:00+22e614345 0.0 1012292
06:00+23e6133172 0.0 1013343
09:00+30ese7920100 0.0 1012814
12:00+34e661649 0.0 10111962
15:00+36e5614100 0.0 10102294
18:00+34ene671594 0.0 1009833
21:00+28e5122092 0.0 1010168
8 august, sun
sun800:00+27e6132374 0.0 1010216
03:00+25ese51027100 0.0 1010158
06:00+25ese51228100 0.0 1011266
09:00+32ese61119100 0.0 1011594
12:00+38ese7913100 0.0 10092247
15:00+37sse121115100 0.0 10093705
18:00+32nne7102349 0.0 1008418
21:00+32ene9132083 0.0 1007380
9 august, mon
mon900:00+28ese5133310 0.0 1006257
03:00+24se2352100 0.3 100735
06:00+24sw3541100 0.0 1007133
09:00+31sw5726100 0.0 1007739
12:00+35sw892075 0.0 10071993
15:00+37sw891924 0.0 10062661
18:00+35wnw662124 0.0 10063001
21:00+28sw45335 0.0 100866